When you browse on this site, cookies collect data to enhance your experience and personalize the content and advertising you see.
Visit our Privacy Policy to learn more. By continuing to use the site, you agree to this use of cookies and data.
  • En España
  • Lista de países
  • Para 7 días
  • Temperatura del agua
  • El tiempo en el mapa
  • Informadores
  • user-avatar
    Iniciar sesión

    Tiempo cada hora Belém

    Hoy, 29 Febrero, Sábado

    Tiempo Temperatura Precipitaciones Viento Presión Humedad
    00:00 +26°C° 0.1 mm 2 mps 759 mmHg 93%
    01:00 +26°C° 0.8 mm 1 mps 759 mmHg 94%
    02:00 +26°C° 0.8 mm 1 mps 758 mmHg 95%
    03:00 +26°C° 0.8 mm 1 mps 758 mmHg 97%
    04:00 +26°C° 0.9 mm 1 mps 758 mmHg 97%
    05:00 +25°C° 0.9 mm 1 mps 758 mmHg 97%
    06:00 +23°C° 0.9 mm 0 mps 758 mmHg 97%
    07:00 +26°C° 1 mm 1 mps 759 mmHg 95%
    08:00 +27°C° 1 mm 1 mps 759 mmHg 93%
    09:00 +28°C° 1 mm 1 mps 760 mmHg 90%
    10:00 +29°C° 1.2 mm 1 mps 760 mmHg 89%
    11:00 +29°C° 1.2 mm 1 mps 759 mmHg 88%
    12:00 +30°C° 1.2 mm 2 mps 759 mmHg 87%
    13:00 +30°C° 1.7 mm 2 mps 758 mmHg 87%
    14:00 +30°C° 1.7 mm 2 mps 758 mmHg 87%
    15:00 +30°C° 1.7 mm 2 mps 757 mmHg 86%
    16:00 +29°C° 1.4 mm 2 mps 757 mmHg 88%
    17:00 +29°C° 1.4 mm 2 mps 757 mmHg 90%
    18:00 +28°C° 1.4 mm 3 mps 757 mmHg 91%
    19:00 +27°C° 0.5 mm 3 mps 757 mmHg 92%
    20:00 +27°C° 0.5 mm 3 mps 758 mmHg 93%
    21:00 +27°C° 0.5 mm 3 mps 759 mmHg 94%
    22:00 +27°C° 0.2 mm 3 mps 759 mmHg 94%
    23:00 +27°C° 0.2 mm 2 mps 759 mmHg 94%

    Mañana, 1 Marzo, Domingo

    Tiempo Temperatura Precipitaciones Viento Presión Humedad
    00:00 +27°C° 0.2 mm 2 mps 759 mmHg 94%
    01:00 +26°C° 1 mm 2 mps 758 mmHg 95%
    02:00 +26°C° 1 mm 2 mps 758 mmHg 96%
    03:00 +26°C° 1 mm 1 mps 757 mmHg 97%
    04:00 +26°C° 1.9 mm 1 mps 757 mmHg 97%
    05:00 +26°C° 1.9 mm 1 mps 757 mmHg 97%
    06:00 +26°C° 1.9 mm 1 mps 757 mmHg 97%
    07:00 +27°C° 2.3 mm 1 mps 758 mmHg 96%
    08:00 +27°C° 2.3 mm 1 mps 758 mmHg 94%
    09:00 +28°C° 2.3 mm 1 mps 759 mmHg 93%
    10:00 +29°C° 2 mm 2 mps 759 mmHg 91%
    11:00 +30°C° 2 mm 2 mps 759 mmHg 89%
    12:00 +30°C° 2 mm 2 mps 759 mmHg 87%
    13:00 +30°C° 1.1 mm 3 mps 758 mmHg 87%
    14:00 +29°C° 1.1 mm 3 mps 757 mmHg 88%
    15:00 +29°C° 1.1 mm 3 mps 756 mmHg 89%
    16:00 +29°C° 0.1 mm 3 mps 756 mmHg 88%
    17:00 +28°C° 0.1 mm 3 mps 756 mmHg 87%
    18:00 +28°C° 0.1 mm 3 mps 756 mmHg 87%
    19:00 +28°C° 0 mm 3 mps 757 mmHg 89%
    20:00 +27°C° 0 mm 3 mps 757 mmHg 91%
    21:00 +27°C° 0 mm 2 mps 758 mmHg 93%
    22:00 +27°C° 0 mm 2 mps 758 mmHg 94%
    23:00 +27°C° 0 mm 2 mps 758 mmHg 94%

    Pasado mañana, 2 Marzo, Lunes

    Tiempo Temperatura Precipitaciones Viento Presión Humedad
    00:00 +26°C° 0 mm 2 mps 758 mmHg 94%
    01:00 +26°C° 1 mm 1 mps 757 mmHg 94%
    02:00 +26°C° 1 mm 1 mps 757 mmHg 95%
    03:00 +26°C° 1 mm 1 mps 756 mmHg 95%
    04:00 +26°C° 1.4 mm 1 mps 757 mmHg 96%
    05:00 +26°C° 1.4 mm 1 mps 757 mmHg 96%
    06:00 +25°C° 1.4 mm 1 mps 757 mmHg 97%
    07:00 +26°C° 0.9 mm 1 mps 757 mmHg 95%
    08:00 +27°C° 0.9 mm 1 mps 758 mmHg 94%
    09:00 +28°C° 0.9 mm 2 mps 758 mmHg 92%
    10:00 +29°C° 1.1 mm 2 mps 758 mmHg 90%
    11:00 +30°C° 1.1 mm 2 mps 758 mmHg 88%
    12:00 +30°C° 1.1 mm 3 mps 758 mmHg 87%
    13:00 +30°C° 1.5 mm 3 mps 757 mmHg 88%
    14:00 +29°C° 1.5 mm 3 mps 757 mmHg 90%
    15:00 +29°C° 1.5 mm 3 mps 756 mmHg 91%
    16:00 +28°C° 0.9 mm 3 mps 756 mmHg 93%
    17:00 +28°C° 0.9 mm 3 mps 756 mmHg 94%
    18:00 +27°C° 0.9 mm 2 mps 756 mmHg 95%
    19:00 +27°C° 0.4 mm 2 mps 757 mmHg 95%
    20:00 +27°C° 0.4 mm 2 mps 757 mmHg 95%
    21:00 +26°C° 0.4 mm 2 mps 757 mmHg 96%
    22:00 +26°C° 0.4 mm 2 mps 758 mmHg 96%
    23:00 +26°C° 0.4 mm 2 mps 758 mmHg 96%

    3 Marzo, Martes

    Tiempo Temperatura Precipitaciones Viento Presión Humedad
    00:00 +26°C° 0.4 mm 2 mps 758 mmHg 96%
    01:00 +26°C° 0.3 mm 1 mps 757 mmHg 96%
    02:00 +26°C° 0.3 mm 1 mps 757 mmHg 96%
    03:00 +25°C° 0.3 mm 1 mps 756 mmHg 97%
    04:00 +25°C° 0.4 mm 1 mps 756 mmHg 97%
    05:00 +25°C° 0.4 mm 1 mps 757 mmHg 97%
    06:00 +25°C° 0.4 mm 1 mps 757 mmHg 97%
    07:00 +24°C° 0.2 mm 0 mps 757 mmHg 94%
    08:00 +25°C° 0.2 mm 0 mps 758 mmHg 91%
    09:00 +27°C° 0.2 mm 0 mps 758 mmHg 88%
    10:00 +27°C° 0.6 mm 0 mps 758 mmHg 85%
    11:00 +30°C° 0.6 mm 1 mps 758 mmHg 81%
    12:00 +31°C° 0.6 mm 1 mps 758 mmHg 77%
    13:00 +31°C° 1.6 mm 2 mps 757 mmHg 81%
    14:00 +30°C° 1.6 mm 2 mps 756 mmHg 85%
    15:00 +30°C° 1.6 mm 3 mps 756 mmHg 89%
    16:00 +29°C° 1.4 mm 3 mps 756 mmHg 91%
    17:00 +28°C° 1.4 mm 3 mps 756 mmHg 92%
    18:00 +28°C° 1.4 mm 3 mps 756 mmHg 94%
    19:00 +27°C° 0.6 mm 3 mps 756 mmHg 94%
    20:00 +27°C° 0.6 mm 3 mps 757 mmHg 95%
    21:00 +27°C° 0.6 mm 3 mps 757 mmHg 96%
    22:00 +26°C° 0.4 mm 3 mps 758 mmHg 96%
    23:00 +26°C° 0.4 mm 3 mps 758 mmHg 96%

    4 Marzo, Miércoles

    Tiempo Temperatura Precipitaciones Viento Presión Humedad
    00:00 +26°C° 0.4 mm 3 mps 758 mmHg 95%
    01:00 +26°C° 0.3 mm 3 mps 758 mmHg 95%
    02:00 +26°C° 0.3 mm 3 mps 757 mmHg 94%
    03:00 +26°C° 0.3 mm 3 mps 757 mmHg 94%
    04:00 +26°C° 0.1 mm 3 mps 757 mmHg 94%
    05:00 +26°C° 0.1 mm 3 mps 757 mmHg 94%
    06:00 +26°C° 0.1 mm 3 mps 757 mmHg 94%
    07:00 +26°C° 0 mm 3 mps 758 mmHg 93%
    08:00 +26°C° 0 mm 3 mps 758 mmHg 92%
    09:00 +27°C° 0 mm 3 mps 759 mmHg 92%
    10:00 +28°C° 0.1 mm 3 mps 759 mmHg 85%
    11:00 +29°C° 0.1 mm 3 mps 759 mmHg 79%
    12:00 +30°C° 0.1 mm 3 mps 759 mmHg 73%
    13:00 +30°C° 0.6 mm 4 mps 758 mmHg 75%
    14:00 +30°C° 0.6 mm 4 mps 757 mmHg 78%
    15:00 +30°C° 0.6 mm 4 mps 756 mmHg 80%
    16:00 +29°C° 0.4 mm 4 mps 757 mmHg 83%
    17:00 +28°C° 0.4 mm 4 mps 757 mmHg 86%
    18:00 +27°C° 0.4 mm 4 mps 757 mmHg 89%
    19:00 +27°C° 0 mm 4 mps 757 mmHg 90%
    20:00 +27°C° 0 mm 4 mps 758 mmHg 90%
    21:00 +27°C° 0 mm 4 mps 758 mmHg 91%
    22:00 +26°C° 0 mm 3 mps 758 mmHg 91%
    23:00 +26°C° 0 mm 3 mps 758 mmHg 92%

    5 Marzo, Jueves

    Tiempo Temperatura Precipitaciones Viento Presión Humedad
    00:00 +26°C° 0 mm 3 mps 759 mmHg 92%
    01:00 +26°C° 0 mm 3 mps 758 mmHg 92%
    02:00 +26°C° 0 mm 3 mps 758 mmHg 93%
    03:00 +26°C° 0 mm 2 mps 757 mmHg 93%
    04:00 +26°C° 0.1 mm 2 mps 757 mmHg 93%
    05:00 +26°C° 0.1 mm 2 mps 757 mmHg 93%
    06:00 +26°C° 0.1 mm 2 mps 757 mmHg 93%
    07:00 +27°C° 0.3 mm 2 mps 758 mmHg 92%
    08:00 +27°C° 0.3 mm 2 mps 759 mmHg 91%
    09:00 +28°C° 0.3 mm 2 mps 759 mmHg 89%
    10:00 +29°C° 0.6 mm 2 mps 759 mmHg 88%
    11:00 +29°C° 0.6 mm 2 mps 759 mmHg 87%
    12:00 +30°C° 0.6 mm 3 mps 759 mmHg 86%
    13:00 +30°C° 1.3 mm 3 mps 758 mmHg 87%
    14:00 +29°C° 1.3 mm 3 mps 757 mmHg 88%
    15:00 +29°C° 1.3 mm 3 mps 757 mmHg 89%
    16:00 +28°C° 1.3 mm 3 mps 757 mmHg 91%
    17:00 +28°C° 1.3 mm 3 mps 757 mmHg 93%
    18:00 +27°C° 1.3 mm 2 mps 757 mmHg 95%
    19:00 +27°C° 1.6 mm 2 mps 757 mmHg 95%
    20:00 +26°C° 1.6 mm 2 mps 758 mmHg 95%
    21:00 +26°C° 1.6 mm 2 mps 758 mmHg 95%
    22:00 +26°C° 0.9 mm 2 mps 759 mmHg 95%
    23:00 +26°C° 0.9 mm 1 mps 759 mmHg 95%
    Mostrar más